Weather History for Springfield, MO

Change the Weather History Date:

Sunday, February 10, 2013

  Actual Average Record
Temperature  
Mean Temperature 49 °F 36 °F  
Max Temperature 60 °F 47 °F 74 °F (1999)
Min Temperature 38 °F 25 °F -10 °F (2011)
Degree Days  
Heating Degree Days 16 29  
Month to date heating degree days 241 303  
Since 1 July heating degree days 2757 3116  
Cooling Degree Days 0 0  
Month to date cooling degree days 0 0  
Year to date cooling degree days 0 0  
Moisture  
Dew Point 38 °F    
Average Humidity 62    
Maximum Humidity 93    
Minimum Humidity 30    
Precipitation  
Precipitation 0.13 in 0.09 in 0.84 in (1998)
Month to date precipitation 0.54 0.79  
Year to date precipitation 3.60 3.26  
Snow  
Snow 0.00 in - - ()
Month to date snowfall T  
Since 1 July snowfall 1.7  
Snow Depth 0.00 in    
Sea Level Pressure  
Sea Level Pressure 29.73 in    
Wind  
Wind Speed 21 mph (South)    
Max Wind Speed 31 mph    
Max Gust Speed 40 mph    
Visibility 9 miles    
Events Rain , Thunderstorm    
T = Trace of Precipitation, MM = Missing Value Source: NWS Daily Summary

Daily Weather History Graph

Daily Weather History Graph

Search for Another Location

Airport:

Trip Planner

Search our weather history database for the weather conditions in past years. The results will help you decide how hot, cold, wet, or windy it might be!

Date:

Astronomy

Feb. 10, 2013 Rise Set
Actual Time 7:07 AM CST 5:48 PM CST
Civil Twilight 6:40 AM CST 6:15 PM CST
Nautical Twilight 6:10 AM CST 6:45 PM CST
Astronomical Twilight 5:39 AM CST 7:16 PM CST
Moon 6:59 AM CST (2/10) 6:37 PM CST (2/10)
Length of Visible Light 11h 34m
Length of Day
10h 40m
New Moon, 0% of the Moon is Illuminated
Feb 10
New Moon
Feb 17
First Quarter
Feb 25
Full
Mar 4
Last Quarter
Mar 11
New

Hourly Weather History & Observations

Time (CST) Temp. Windchill Dew Point Humidity Pressure Visibility Wind Dir Wind Speed Gust Speed Precip Events Conditions
12:15 AM 39.0 °F 27.8 °F 36.0 °F 89% 29.83 in 8.0 mi SSE 26.5 mph 36.8 mph 0.00 in   Overcast
12:52 AM 39.0 °F 27.8 °F 36.0 °F 89% 29.82 in 8.0 mi SE 26.5 mph 35.7 mph 0.00 in   Overcast
1:03 AM 39.0 °F 28.3 °F 37.0 °F 93% 29.80 in 8.0 mi SE 24.2 mph 34.5 mph N/A   Overcast
1:52 AM 41.0 °F 30.2 °F 37.9 °F 89% 29.79 in 7.0 mi SSE 27.6 mph 34.5 mph N/A   Overcast
2:04 AM 41.0 °F 30.9 °F 37.9 °F 89% 29.77 in 7.0 mi SSE 24.2 mph 34.5 mph N/A   Overcast
2:52 AM 42.1 °F 33.3 °F 39.9 °F 92% 29.75 in 6.0 mi SSE 19.6 mph 31.1 mph N/A   Overcast
3:52 AM 42.1 °F 32.8 °F 39.9 °F 92% 29.74 in 4.0 mi SSE 21.9 mph 28.8 mph N/A   Overcast
4:05 AM 42.1 °F 33.3 °F 41.0 °F 96% 29.71 in 4.0 mi SSE 19.6 mph 28.8 mph 0.00 in Rain , Thunderstorm Light Rain
4:52 AM 42.1 °F 32.8 °F 41.0 °F 96% 29.69 in 5.0 mi SE 21.9 mph - 0.05 in Rain , Thunderstorm Light Rain
4:59 AM 43.0 °F 33.5 °F 41.0 °F 93% 29.65 in 5.0 mi SE 24.2 mph - 0.00 in Rain Light Rain
5:50 AM 44.6 °F 35.7 °F 42.8 °F 93% 29.65 in 7.0 mi SSE 24.2 mph 31.1 mph 0.01 in Rain Light Rain
5:52 AM 45.0 °F 36.0 °F 43.0 °F 93% 29.66 in 8.0 mi SSE 25.3 mph 31.1 mph 0.01 in Rain Light Rain
6:52 AM 46.0 °F 38.5 °F 44.1 °F 93% 29.65 in 9.0 mi SSE 19.6 mph - 0.05 in Rain Light Rain
7:04 AM 46.0 °F 38.8 °F 45.0 °F 96% 29.65 in 10.0 mi SSE 18.4 mph - 0.00 in   Overcast
7:40 AM 46.9 °F - 46.0 °F 97% 29.64 in 10.0 mi SSE 19.6 mph - 0.00 in   Mostly Cloudy
7:52 AM 48.0 °F - 46.0 °F 93% 29.65 in 10.0 mi SSE 20.7 mph - 0.00 in   Mostly Cloudy
8:14 AM 48.9 °F - 46.9 °F 93% 29.64 in 8.0 mi SSE 23.0 mph 28.8 mph 0.00 in Rain Light Rain
8:37 AM 48.9 °F - 46.9 °F 93% 29.65 in 10.0 mi SSE 18.4 mph - 0.01 in   Overcast
8:52 AM 48.9 °F - 46.9 °F 93% 29.65 in 10.0 mi South 17.3 mph - 0.01 in   Overcast
9:52 AM 51.1 °F - 48.9 °F 92% 29.65 in 10.0 mi South 17.3 mph 27.6 mph 0.01 in   Overcast
10:52 AM 55.0 °F - 52.0 °F 89% 29.64 in 10.0 mi South 20.7 mph - N/A   Overcast
11:06 AM 55.0 °F - 50.0 °F 83% 29.64 in 10.0 mi SW 18.4 mph 26.5 mph N/A   Mostly Cloudy
11:12 AM 57.0 °F - 48.9 °F 74% 29.64 in 10.0 mi SW 20.7 mph 29.9 mph N/A   Scattered Clouds
11:52 AM 59.0 °F - 43.0 °F 55% 29.64 in 10.0 mi SW 20.7 mph 27.6 mph N/A   Clear
12:52 PM 59.0 °F - 35.1 °F 41% 29.64 in 10.0 mi North - - N/A   Clear
1:52 PM 60.1 °F - 30.9 °F 33% 29.63 in 10.0 mi WSW 21.9 mph 31.1 mph N/A   Clear
2:52 PM 59.0 °F - 28.9 °F 32% 29.65 in 10.0 mi WSW 21.9 mph 31.1 mph N/A   Clear
3:52 PM 57.9 °F - 28.9 °F 33% 29.67 in 10.0 mi SW 23.0 mph 34.5 mph N/A   Clear
4:52 PM 57.0 °F - 26.1 °F 30% 29.70 in 10.0 mi WSW 21.9 mph 36.8 mph N/A   Clear
5:52 PM 54.0 °F - 26.1 °F 34% 29.74 in 10.0 mi WSW 18.4 mph 27.6 mph N/A   Clear
6:52 PM 50.0 °F - 27.0 °F 41% 29.78 in 10.0 mi WSW 12.7 mph 20.7 mph N/A   Clear
7:52 PM 50.0 °F - 26.1 °F 39% 29.82 in 10.0 mi WSW 18.4 mph 27.6 mph N/A   Clear
8:52 PM 46.0 °F 38.0 °F 27.0 °F 47% 29.89 in 10.0 mi West 21.9 mph 33.4 mph N/A   Clear
9:52 PM 42.1 °F 33.6 °F 26.1 °F 53% 29.93 in 10.0 mi West 18.4 mph 26.5 mph N/A   Clear
10:52 PM 41.0 °F 31.1 °F 25.0 °F 53% 29.98 in 10.0 mi West 23.0 mph 40.3 mph N/A   Clear
11:52 PM 37.9 °F 30.5 °F 24.1 °F 57% 29.99 in 10.0 mi West 11.5 mph - N/A   Clear